date,time,water_lv
2023-08-01,00:00:00,191.65
2023-08-01,00:10:00,191.65
2023-08-01,00:20:00,191.64
2023-08-01,00:30:00,191.63
2023-08-01,00:40:00,191.63
2023-08-01,00:50:00,191.63
2023-08-01,01:00:00,191.62
2023-08-01,01:10:00,191.62
2023-08-01,01:20:00,191.61
2023-08-01,01:30:00,191.61
2023-08-01,01:40:00,191.6
2023-08-01,01:50:00,191.59
2023-08-01,02:00:00,191.59
2023-08-01,02:10:00,191.58
2023-08-01,02:20:00,191.58
2023-08-01,02:30:00,191.57
2023-08-01,02:40:00,191.56
2023-08-01,02:50:00,191.56
2023-08-01,03:00:00,191.55
2023-08-01,03:10:00,191.55
2023-08-01,03:20:00,191.54
2023-08-01,03:30:00,191.54
2023-08-01,03:40:00,191.53
2023-08-01,03:50:00,191.52
2023-08-01,04:00:00,191.51
2023-08-01,04:10:00,191.51
2023-08-01,04:20:00,191.5
2023-08-01,04:30:00,191.5
2023-08-01,04:40:00,191.49
2023-08-01,04:50:00,191.48
2023-08-01,05:00:00,191.47
2023-08-01,05:10:00,191.47
2023-08-01,05:20:00,191.46
2023-08-01,05:30:00,191.45
2023-08-01,05:40:00,191.45
2023-08-01,05:50:00,191.44
2023-08-01,06:00:00,191.43
2023-08-01,06:10:00,191.43
2023-08-01,06:20:00,191.42
2023-08-01,06:30:00,191.42
2023-08-01,06:40:00,191.43
2023-08-01,06:50:00,191.43
2023-08-01,07:00:00,191.43
2023-08-01,07:10:00,191.44
2023-08-01,07:20:00,191.45
2023-08-01,07:30:00,191.45
2023-08-01,07:40:00,191.45
2023-08-01,07:50:00,191.46
2023-08-01,08:00:00,191.45
2023-08-01,08:10:00,191.45
2023-08-01,08:20:00,191.44
2023-08-01,08:30:00,191.43
2023-08-01,08:40:00,191.43
2023-08-01,08:50:00,191.41
2023-08-01,09:00:00,191.41
2023-08-01,09:10:00,191.4
2023-08-01,09:20:00,191.39
2023-08-01,09:30:00,191.39
2023-08-01,09:40:00,191.39
2023-08-01,09:50:00,191.38
2023-08-01,10:00:00,191.38
2023-08-01,10:10:00,191.38
2023-08-01,10:20:00,191.37
2023-08-01,10:30:00,191.36
2023-08-01,10:40:00,191.36
2023-08-01,10:50:00,-
2023-08-01,11:00:00,191.36
2023-08-01,11:10:00,191.36
2023-08-01,11:20:00,191.35
2023-08-01,11:30:00,191.35
2023-08-01,11:40:00,191.35
2023-08-01,11:50:00,191.34
2023-08-01,12:00:00,191.34
2023-08-01,12:10:00,-
2023-08-01,12:20:00,-
2023-08-01,12:30:00,-
2023-08-01,12:40:00,191.33
2023-08-01,12:50:00,191.33
2023-08-01,13:00:00,191.33
2023-08-01,13:10:00,191.33
2023-08-01,13:20:00,191.32
2023-08-01,13:30:00,191.32
2023-08-01,13:40:00,-
2023-08-01,13:50:00,-
2023-08-01,14:00:00,191.31
2023-08-01,14:10:00,191.31
2023-08-01,14:20:00,191.31
2023-08-01,14:30:00,191.31
2023-08-01,14:40:00,191.31
2023-08-01,14:50:00,191.3
2023-08-01,15:00:00,191.3
2023-08-01,15:10:00,191.3
2023-08-01,15:20:00,191.3
2023-08-01,15:30:00,191.29
2023-08-01,15:40:00,191.29
2023-08-01,15:50:00,191.29
2023-08-01,16:00:00,191.29
2023-08-01,16:10:00,191.28
2023-08-01,16:20:00,191.29
2023-08-01,16:30:00,191.28
2023-08-01,16:40:00,191.28
2023-08-01,16:50:00,191.28
2023-08-01,17:00:00,191.27
2023-08-01,17:10:00,191.28
2023-08-01,17:20:00,191.27
2023-08-01,17:30:00,191.27
2023-08-01,17:40:00,191.27
2023-08-01,17:50:00,191.27
2023-08-01,18:00:00,191.27
2023-08-01,18:10:00,191.27
2023-08-01,18:20:00,191.27
2023-08-01,18:30:00,191.27
2023-08-01,18:40:00,191.27
2023-08-01,18:50:00,191.27
2023-08-01,19:00:00,191.26
2023-08-01,19:10:00,191.26
2023-08-01,19:20:00,191.26
2023-08-01,19:30:00,191.26
2023-08-01,19:40:00,191.26
2023-08-01,19:50:00,191.26
2023-08-01,20:00:00,191.26
2023-08-01,20:10:00,191.25
2023-08-01,20:20:00,191.25
2023-08-01,20:30:00,191.25
2023-08-01,20:40:00,191.25
2023-08-01,20:50:00,191.25
2023-08-01,21:00:00,191.24
2023-08-01,21:10:00,191.24
2023-08-01,21:20:00,191.24
2023-08-01,21:30:00,191.24
2023-08-01,21:40:00,191.23
2023-08-01,21:50:00,191.23
2023-08-01,22:00:00,191.23
2023-08-01,22:10:00,191.22
2023-08-01,22:20:00,191.22
2023-08-01,22:30:00,191.22
2023-08-01,22:40:00,191.22
2023-08-01,22:50:00,191.22
2023-08-01,23:00:00,191.22
2023-08-01,23:10:00,191.21
2023-08-01,23:20:00,191.21
2023-08-01,23:30:00,191.21
2023-08-01,23:40:00,191.21
2023-08-01,23:50:00,191.22
2023-08-02,00:00:00,191.22
2023-08-02,00:10:00,191.22
2023-08-02,00:20:00,191.22
2023-08-02,00:30:00,191.22
2023-08-02,00:40:00,191.22
2023-08-02,00:50:00,191.22
2023-08-02,01:00:00,191.22
2023-08-02,01:10:00,191.23
2023-08-02,01:20:00,191.23
2023-08-02,01:30:00,191.23
2023-08-02,01:40:00,191.23
2023-08-02,01:50:00,191.23
2023-08-02,02:00:00,191.23
2023-08-02,02:10:00,191.23
2023-08-02,02:20:00,191.23
2023-08-02,02:30:00,191.23
2023-08-02,02:40:00,191.23
2023-08-02,02:50:00,191.23
2023-08-02,03:00:00,191.23
2023-08-02,03:10:00,191.23
2023-08-02,03:20:00,191.22
2023-08-02,03:30:00,191.22
2023-08-02,03:40:00,191.21
2023-08-02,03:50:00,191.21
2023-08-02,04:00:00,191.2
2023-08-02,04:10:00,191.19
2023-08-02,04:20:00,191.19
2023-08-02,04:30:00,191.18
2023-08-02,04:40:00,191.18
2023-08-02,04:50:00,191.17
2023-08-02,05:00:00,191.17
2023-08-02,05:10:00,191.16
2023-08-02,05:20:00,191.15
2023-08-02,05:30:00,191.15
2023-08-02,05:40:00,191.14
2023-08-02,05:50:00,191.13
2023-08-02,06:00:00,191.13
2023-08-02,06:10:00,191.13
2023-08-02,06:20:00,191.12
2023-08-02,06:30:00,191.11
2023-08-02,06:40:00,191.11
2023-08-02,06:50:00,191.1
2023-08-02,07:00:00,191.11
2023-08-02,07:10:00,191.1
2023-08-02,07:20:00,191.09
2023-08-02,07:30:00,191.1
2023-08-02,07:40:00,191.1
2023-08-02,07:50:00,191.1
2023-08-02,08:00:00,191.11
2023-08-02,08:10:00,191.13
2023-08-02,08:20:00,191.13
2023-08-02,08:30:00,191.14
2023-08-02,08:40:00,191.15
2023-08-02,08:50:00,191.14
2023-08-02,09:00:00,191.15
2023-08-02,09:10:00,191.15
2023-08-02,09:20:00,-
2023-08-02,09:30:00,191.15
2023-08-02,09:40:00,191.15
2023-08-02,09:50:00,191.14
2023-08-02,10:00:00,191.14
2023-08-02,10:10:00,191.13
2023-08-02,10:20:00,191.13
2023-08-02,10:30:00,191.13
2023-08-02,10:40:00,191.13
2023-08-02,10:50:00,191.13
2023-08-02,11:00:00,191.13
2023-08-02,11:10:00,191.12
2023-08-02,11:20:00,191.12
2023-08-02,11:30:00,191.12
2023-08-02,11:40:00,191.12
2023-08-02,11:50:00,191.12
2023-08-02,12:00:00,191.11
2023-08-02,12:10:00,191.11
2023-08-02,12:20:00,191.11
2023-08-02,12:30:00,191.11
2023-08-02,12:40:00,-
2023-08-02,12:50:00,-
2023-08-02,13:00:00,191.11
2023-08-02,13:10:00,191.11
2023-08-02,13:20:00,191.12
2023-08-02,13:30:00,191.12
2023-08-02,13:40:00,191.11
2023-08-02,13:50:00,191.11
2023-08-02,14:00:00,191.11
2023-08-02,14:10:00,191.11
2023-08-02,14:20:00,191.11
2023-08-02,14:30:00,191.1
2023-08-02,14:40:00,191.1
2023-08-02,14:50:00,191.1
2023-08-02,15:00:00,191.1
2023-08-02,15:10:00,191.09
2023-08-02,15:20:00,191.09
2023-08-02,15:30:00,191.09
2023-08-02,15:40:00,-
2023-08-02,15:50:00,191.09
2023-08-02,16:00:00,191.09
2023-08-02,16:10:00,191.09
2023-08-02,16:20:00,-
2023-08-02,16:30:00,-
2023-08-02,16:40:00,191.09
2023-08-02,16:50:00,191.09
2023-08-02,17:00:00,191.09
2023-08-02,17:10:00,191.09
2023-08-02,17:20:00,191.09
2023-08-02,17:30:00,191.09
2023-08-02,17:40:00,191.1
2023-08-02,17:50:00,191.09
2023-08-02,18:00:00,191.09
2023-08-02,18:10:00,191.1
2023-08-02,18:20:00,191.09
2023-08-02,18:30:00,191.09
2023-08-02,18:40:00,191.09
2023-08-02,18:50:00,191.09
2023-08-02,19:00:00,191.09
2023-08-02,19:10:00,191.09
2023-08-02,19:20:00,191.09
2023-08-02,19:30:00,191.1
2023-08-02,19:40:00,191.1
2023-08-02,19:50:00,191.1
2023-08-02,20:00:00,191.1
2023-08-02,20:10:00,191.09
2023-08-02,20:20:00,191.1
2023-08-02,20:30:00,191.1
2023-08-02,20:40:00,191.1
2023-08-02,20:50:00,191.09
2023-08-02,21:00:00,191.1
2023-08-02,21:10:00,191.1
2023-08-02,21:20:00,191.09
2023-08-02,21:30:00,191.09
2023-08-02,21:40:00,191.1
2023-08-02,21:50:00,191.1
2023-08-02,22:00:00,191.1
2023-08-02,22:10:00,191.1
2023-08-02,22:20:00,191.1
2023-08-02,22:30:00,191.1
2023-08-02,22:40:00,191.1
2023-08-02,22:50:00,191.1
2023-08-02,23:00:00,191.1
2023-08-02,23:10:00,191.1
2023-08-02,23:20:00,191.1
2023-08-02,23:30:00,191.1
2023-08-02,23:40:00,191.1
2023-08-02,23:50:00,191.1
2023-08-03,00:00:00,191.1
2023-08-03,00:10:00,191.09
2023-08-03,00:20:00,191.09
2023-08-03,00:30:00,191.1
2023-08-03,00:40:00,191.09
2023-08-03,00:50:00,191.09
2023-08-03,01:00:00,191.09
2023-08-03,01:10:00,191.08
2023-08-03,01:20:00,191.08
2023-08-03,01:30:00,191.08
2023-08-03,01:40:00,191.07
2023-08-03,01:50:00,191.07
2023-08-03,02:00:00,191.06
2023-08-03,02:10:00,191.06
2023-08-03,02:20:00,191.06
2023-08-03,02:30:00,191.05
2023-08-03,02:40:00,191.05
2023-08-03,02:50:00,191.05
2023-08-03,03:00:00,191.04
2023-08-03,03:10:00,191.04
2023-08-03,03:20:00,191.03
2023-08-03,03:30:00,191.03
2023-08-03,03:40:00,191.03
2023-08-03,03:50:00,191.03
2023-08-03,04:00:00,191.02
2023-08-03,04:10:00,191.02
2023-08-03,04:20:00,191.02
2023-08-03,04:30:00,191.01
2023-08-03,04:40:00,191.02
2023-08-03,04:50:00,191.01
2023-08-03,05:00:00,191.01
2023-08-03,05:10:00,191.01
2023-08-03,05:20:00,191.01
2023-08-03,05:30:00,191.02
2023-08-03,05:40:00,191.01
2023-08-03,05:50:00,191.02
2023-08-03,06:00:00,191.02
2023-08-03,06:10:00,191.02
2023-08-03,06:20:00,191.02
2023-08-03,06:30:00,191.02
2023-08-03,06:40:00,191.02
2023-08-03,06:50:00,191.02
2023-08-03,07:00:00,191.02
2023-08-03,07:10:00,191.02
2023-08-03,07:20:00,191.03
2023-08-03,07:30:00,191.03
2023-08-03,07:40:00,191.03
2023-08-03,07:50:00,191.02
2023-08-03,08:00:00,191.03
2023-08-03,08:10:00,191.02
2023-08-03,08:20:00,191.03
2023-08-03,08:30:00,-
2023-08-03,08:40:00,191.03
2023-08-03,08:50:00,191.03
2023-08-03,09:00:00,191.03
2023-08-03,09:10:00,-
2023-08-03,09:20:00,191.03
2023-08-03,09:30:00,191.02
2023-08-03,09:40:00,191.02
2023-08-03,09:50:00,191.02
2023-08-03,10:00:00,191.01
2023-08-03,10:10:00,-
2023-08-03,10:20:00,191.02
2023-08-03,10:30:00,191.01
2023-08-03,10:40:00,191.02
2023-08-03,10:50:00,-
2023-08-03,11:00:00,191.02
2023-08-03,11:10:00,191.02
2023-08-03,11:20:00,191.02
2023-08-03,11:30:00,191.03
2023-08-03,11:40:00,191.03
2023-08-03,11:50:00,-
2023-08-03,12:00:00,191.03
2023-08-03,12:10:00,191.04
2023-08-03,12:20:00,191.04
2023-08-03,12:30:00,191.04
2023-08-03,12:40:00,191.04
2023-08-03,12:50:00,191.04
2023-08-03,13:00:00,191.04
2023-08-03,13:10:00,191.05
2023-08-03,13:20:00,191.04
2023-08-03,13:30:00,191.05
2023-08-03,13:40:00,191.05
2023-08-03,13:50:00,191.05
2023-08-03,14:00:00,191.05
2023-08-03,14:10:00,191.05
2023-08-03,14:20:00,191.06
2023-08-03,14:30:00,191.06
2023-08-03,14:40:00,191.06
2023-08-03,14:50:00,191.07
2023-08-03,15:00:00,191.07
2023-08-03,15:10:00,191.08
2023-08-03,15:20:00,191.08
2023-08-03,15:30:00,191.09
2023-08-03,15:40:00,191.09
2023-08-03,15:50:00,191.1
2023-08-03,16:00:00,191.1
2023-08-03,16:10:00,-
2023-08-03,16:20:00,191.11
2023-08-03,16:30:00,191.12
2023-08-03,16:40:00,191.12
2023-08-03,16:50:00,191.12
2023-08-03,17:00:00,191.13
2023-08-03,17:10:00,191.13
2023-08-03,17:20:00,191.14
2023-08-03,17:30:00,191.15
2023-08-03,17:40:00,191.15
2023-08-03,17:50:00,191.15
2023-08-03,18:00:00,191.16
2023-08-03,18:10:00,191.17
2023-08-03,18:20:00,191.17
2023-08-03,18:30:00,191.18
2023-08-03,18:40:00,191.18
2023-08-03,18:50:00,191.19
2023-08-03,19:00:00,191.2
2023-08-03,19:10:00,191.2
2023-08-03,19:20:00,191.21
2023-08-03,19:30:00,191.21
2023-08-03,19:40:00,191.22
2023-08-03,19:50:00,191.23
2023-08-03,20:00:00,191.23
2023-08-03,20:10:00,191.24
2023-08-03,20:20:00,191.25
2023-08-03,20:30:00,191.26
2023-08-03,20:40:00,191.26
2023-08-03,20:50:00,191.27
2023-08-03,21:00:00,191.28
2023-08-03,21:10:00,191.28
2023-08-03,21:20:00,191.29
2023-08-03,21:30:00,191.3
2023-08-03,21:40:00,191.31
2023-08-03,21:50:00,191.32
2023-08-03,22:00:00,191.33
2023-08-03,22:10:00,191.34
2023-08-03,22:20:00,191.35
2023-08-03,22:30:00,191.34
2023-08-03,22:40:00,191.34
2023-08-03,22:50:00,191.34
2023-08-03,23:00:00,191.34
2023-08-03,23:10:00,191.34
2023-08-03,23:20:00,191.33
2023-08-03,23:30:00,191.34
2023-08-03,23:40:00,191.34
2023-08-03,23:50:00,191.33
2023-08-04,00:00:00,191.33
2023-08-04,00:10:00,191.34
2023-08-04,00:20:00,191.33
2023-08-04,00:30:00,191.34
2023-08-04,00:40:00,191.34
2023-08-04,00:50:00,191.34
2023-08-04,01:00:00,191.33
2023-08-04,01:10:00,191.34
2023-08-04,01:20:00,191.34
2023-08-04,01:30:00,191.35
2023-08-04,01:40:00,191.35
2023-08-04,01:50:00,191.36
2023-08-04,02:00:00,191.36
2023-08-04,02:10:00,191.37
2023-08-04,02:20:00,191.38
2023-08-04,02:30:00,191.38
2023-08-04,02:40:00,191.39
2023-08-04,02:50:00,191.39
2023-08-04,03:00:00,191.4
2023-08-04,03:10:00,191.4
2023-08-04,03:20:00,191.41
2023-08-04,03:30:00,191.41
2023-08-04,03:40:00,191.42
2023-08-04,03:50:00,191.42
2023-08-04,04:00:00,191.43
2023-08-04,04:10:00,191.43
2023-08-04,04:20:00,191.44
2023-08-04,04:30:00,191.45
2023-08-04,04:40:00,191.45
2023-08-04,04:50:00,191.45
2023-08-04,05:00:00,191.46
2023-08-04,05:10:00,191.46
2023-08-04,05:20:00,191.46
2023-08-04,05:30:00,191.47
2023-08-04,05:40:00,191.47
2023-08-04,05:50:00,191.48
2023-08-04,06:00:00,191.48
2023-08-04,06:10:00,191.48
2023-08-04,06:20:00,191.49
2023-08-04,06:30:00,191.49
2023-08-04,06:40:00,191.48
2023-08-04,06:50:00,191.47
2023-08-04,07:00:00,191.46
2023-08-04,07:10:00,191.44
2023-08-04,07:20:00,191.44
2023-08-04,07:30:00,191.43
2023-08-04,07:40:00,191.42
2023-08-04,07:50:00,191.41
2023-08-04,08:00:00,191.39
2023-08-04,08:10:00,191.39
2023-08-04,08:20:00,191.38
2023-08-04,08:30:00,191.38
2023-08-04,08:40:00,-
2023-08-04,08:50:00,191.38
2023-08-04,09:00:00,191.38
2023-08-04,09:10:00,191.38
2023-08-04,09:20:00,191.38
2023-08-04,09:30:00,191.37
2023-08-04,09:40:00,191.37
2023-08-04,09:50:00,191.36
2023-08-04,10:00:00,191.36
2023-08-04,10:10:00,191.36
2023-08-04,10:20:00,191.36
2023-08-04,10:30:00,191.35
2023-08-04,10:40:00,191.34
2023-08-04,10:50:00,191.35
2023-08-04,11:00:00,191.35
2023-08-04,11:10:00,191.34
2023-08-04,11:20:00,191.34
2023-08-04,11:30:00,-
2023-08-04,11:40:00,191.33
2023-08-04,11:50:00,191.34
2023-08-04,12:00:00,191.34
2023-08-04,12:10:00,191.34
2023-08-04,12:20:00,-
2023-08-04,12:30:00,191.34
2023-08-04,12:40:00,-
2023-08-04,12:50:00,191.34
2023-08-04,13:00:00,191.34
2023-08-04,13:10:00,191.34
2023-08-04,13:20:00,191.34
2023-08-04,13:30:00,-
2023-08-04,13:40:00,-
2023-08-04,13:50:00,-
2023-08-04,14:00:00,191.36
2023-08-04,14:10:00,191.35
2023-08-04,14:20:00,191.36
2023-08-04,14:30:00,191.36
2023-08-04,14:40:00,191.36
2023-08-04,14:50:00,-
2023-08-04,15:00:00,191.36
2023-08-04,15:10:00,191.36
2023-08-04,15:20:00,191.36
2023-08-04,15:30:00,191.37
2023-08-04,15:40:00,191.37
2023-08-04,15:50:00,191.38
2023-08-04,16:00:00,191.38
2023-08-04,16:10:00,191.38
2023-08-04,16:20:00,191.39
2023-08-04,16:30:00,191.39
2023-08-04,16:40:00,191.4
2023-08-04,16:50:00,191.4
2023-08-04,17:00:00,191.4
2023-08-04,17:10:00,191.41
2023-08-04,17:20:00,191.41
2023-08-04,17:30:00,191.41
2023-08-04,17:40:00,191.42
2023-08-04,17:50:00,191.42
2023-08-04,18:00:00,191.42
2023-08-04,18:10:00,191.41
2023-08-04,18:20:00,191.43
2023-08-04,18:30:00,191.43
2023-08-04,18:40:00,191.44
2023-08-04,18:50:00,191.44
2023-08-04,19:00:00,191.45
2023-08-04,19:10:00,191.45
2023-08-04,19:20:00,191.46
2023-08-04,19:30:00,191.46
2023-08-04,19:40:00,191.46
2023-08-04,19:50:00,191.46
2023-08-04,20:00:00,191.46
2023-08-04,20:10:00,191.46
2023-08-04,20:20:00,191.45
2023-08-04,20:30:00,191.46
2023-08-04,20:40:00,191.45
2023-08-04,20:50:00,191.45
2023-08-04,21:00:00,191.45
2023-08-04,21:10:00,191.45
2023-08-04,21:20:00,191.45
2023-08-04,21:30:00,191.45
2023-08-04,21:40:00,191.45
2023-08-04,21:50:00,191.44
2023-08-04,22:00:00,191.44
2023-08-04,22:10:00,191.44
2023-08-04,22:20:00,191.44
2023-08-04,22:30:00,191.43
2023-08-04,22:40:00,191.44
2023-08-04,22:50:00,191.43
2023-08-04,23:00:00,191.43
2023-08-04,23:10:00,191.43
2023-08-04,23:20:00,191.43
2023-08-04,23:30:00,191.42
2023-08-04,23:40:00,191.43
2023-08-04,23:50:00,191.42
2023-08-05,00:00:00,191.42
2023-08-05,00:10:00,191.42
2023-08-05,00:20:00,191.41
2023-08-05,00:30:00,191.42
2023-08-05,00:40:00,191.41
2023-08-05,00:50:00,191.42
2023-08-05,01:00:00,191.42
2023-08-05,01:10:00,191.41
2023-08-05,01:20:00,191.41
2023-08-05,01:30:00,191.41
2023-08-05,01:40:00,191.41
2023-08-05,01:50:00,191.42
2023-08-05,02:00:00,191.41
2023-08-05,02:10:00,191.42
2023-08-05,02:20:00,191.41
2023-08-05,02:30:00,191.42
2023-08-05,02:40:00,191.41
2023-08-05,02:50:00,191.41
2023-08-05,03:00:00,191.41
2023-08-05,03:10:00,191.41
2023-08-05,03:20:00,191.41
2023-08-05,03:30:00,191.41
2023-08-05,03:40:00,191.41
2023-08-05,03:50:00,191.41
2023-08-05,04:00:00,191.41
2023-08-05,04:10:00,191.41
2023-08-05,04:20:00,191.41
2023-08-05,04:30:00,191.41
2023-08-05,04:40:00,191.4
2023-08-05,04:50:00,191.41
2023-08-05,05:00:00,191.4
2023-08-05,05:10:00,191.41
2023-08-05,05:20:00,191.41
2023-08-05,05:30:00,191.41
2023-08-05,05:40:00,191.41
2023-08-05,05:50:00,191.4
2023-08-05,06:00:00,191.41
2023-08-05,06:10:00,191.41
2023-08-05,06:20:00,191.41
2023-08-05,06:30:00,191.41
2023-08-05,06:40:00,191.41
2023-08-05,06:50:00,191.42
2023-08-05,07:00:00,191.41
2023-08-05,07:10:00,191.42
2023-08-05,07:20:00,191.42
2023-08-05,07:30:00,191.42
2023-08-05,07:40:00,191.42
2023-08-05,07:50:00,191.42
2023-08-05,08:00:00,191.43
2023-08-05,08:10:00,191.43
2023-08-05,08:20:00,191.43
2023-08-05,08:30:00,191.44
2023-08-05,08:40:00,191.44
2023-08-05,08:50:00,191.44
2023-08-05,09:00:00,191.45
2023-08-05,09:10:00,191.45
2023-08-05,09:20:00,191.46
2023-08-05,09:30:00,191.46
2023-08-05,09:40:00,191.46
2023-08-05,09:50:00,191.47
2023-08-05,10:00:00,191.47
2023-08-05,10:10:00,191.47
2023-08-05,10:20:00,191.49
2023-08-05,10:30:00,191.49
2023-08-05,10:40:00,191.5
2023-08-05,10:50:00,191.5
2023-08-05,11:00:00,191.51
2023-08-05,11:10:00,-
2023-08-05,11:20:00,191.52
2023-08-05,11:30:00,191.53
2023-08-05,11:40:00,191.54
2023-08-05,11:50:00,191.56
2023-08-05,12:00:00,191.56
2023-08-05,12:10:00,191.57
2023-08-05,12:20:00,191.58
2023-08-05,12:30:00,191.59
2023-08-05,12:40:00,191.6
2023-08-05,12:50:00,191.61
2023-08-05,13:00:00,191.62
2023-08-05,13:10:00,191.64
2023-08-05,13:20:00,-
2023-08-05,13:30:00,191.66
2023-08-05,13:40:00,191.66
2023-08-05,13:50:00,-
2023-08-05,14:00:00,191.68
2023-08-05,14:10:00,191.69
2023-08-05,14:20:00,191.71
2023-08-05,14:30:00,191.72
2023-08-05,14:40:00,191.73
2023-08-05,14:50:00,191.75
2023-08-05,15:00:00,191.76
2023-08-05,15:10:00,191.77
2023-08-05,15:20:00,191.79
2023-08-05,15:30:00,191.81
2023-08-05,15:40:00,191.83
2023-08-05,15:50:00,191.85
2023-08-05,16:00:00,191.86
2023-08-05,16:10:00,191.89
2023-08-05,16:20:00,191.91
2023-08-05,16:30:00,191.93
2023-08-05,16:40:00,191.95
2023-08-05,16:50:00,191.98
2023-08-05,17:00:00,192
2023-08-05,17:10:00,192.04
2023-08-05,17:20:00,192.07
2023-08-05,17:30:00,192.1
2023-08-05,17:40:00,192.14
2023-08-05,17:50:00,192.17
2023-08-05,18:00:00,192.22
2023-08-05,18:10:00,192.26
2023-08-05,18:20:00,192.3
2023-08-05,18:30:00,192.33
2023-08-05,18:40:00,192.39
2023-08-05,18:50:00,192.43
2023-08-05,19:00:00,192.46
2023-08-05,19:10:00,192.53
2023-08-05,19:20:00,192.59
2023-08-05,19:30:00,192.63
2023-08-05,19:40:00,192.69
2023-08-05,19:50:00,192.74
2023-08-05,20:00:00,192.78
2023-08-05,20:10:00,192.81
2023-08-05,20:20:00,192.83
2023-08-05,20:30:00,192.86
2023-08-05,20:40:00,192.89
2023-08-05,20:50:00,192.92
2023-08-05,21:00:00,192.95
2023-08-05,21:10:00,192.99
2023-08-05,21:20:00,193.02
2023-08-05,21:30:00,193.06
2023-08-05,21:40:00,193.09
2023-08-05,21:50:00,193.12
2023-08-05,22:00:00,193.15
2023-08-05,22:10:00,193.19
2023-08-05,22:20:00,193.21
2023-08-05,22:30:00,193.24
2023-08-05,22:40:00,193.28
2023-08-05,22:50:00,193.31
2023-08-05,23:00:00,193.33
2023-08-05,23:10:00,193.36
2023-08-05,23:20:00,193.38
2023-08-05,23:30:00,193.41
2023-08-05,23:40:00,193.43
2023-08-05,23:50:00,193.46
2023-08-06,00:00:00,193.48
2023-08-06,00:10:00,193.5
2023-08-06,00:20:00,193.53
2023-08-06,00:30:00,193.54
2023-08-06,00:40:00,193.56
2023-08-06,00:50:00,193.57
2023-08-06,01:00:00,193.6
2023-08-06,01:10:00,193.61
2023-08-06,01:20:00,193.62
2023-08-06,01:30:00,193.65
2023-08-06,01:40:00,193.66
2023-08-06,01:50:00,193.68
2023-08-06,02:00:00,193.69
2023-08-06,02:10:00,193.71
2023-08-06,02:20:00,193.71
2023-08-06,02:30:00,193.73
2023-08-06,02:40:00,193.74
2023-08-06,02:50:00,193.76
2023-08-06,03:00:00,193.76
2023-08-06,03:10:00,193.78
2023-08-06,03:20:00,193.78
2023-08-06,03:30:00,193.79
2023-08-06,03:40:00,193.79
2023-08-06,03:50:00,193.81
2023-08-06,04:00:00,193.81
2023-08-06,04:10:00,193.82
2023-08-06,04:20:00,193.84
2023-08-06,04:30:00,193.85
2023-08-06,04:40:00,193.85
2023-08-06,04:50:00,193.87
2023-08-06,05:00:00,193.88
2023-08-06,05:10:00,193.89
2023-08-06,05:20:00,193.9
2023-08-06,05:30:00,193.9
2023-08-06,05:40:00,193.92
2023-08-06,05:50:00,193.93
2023-08-06,06:00:00,193.94
2023-08-06,06:10:00,193.95
2023-08-06,06:20:00,193.96
2023-08-06,06:30:00,193.97
2023-08-06,06:40:00,193.98
2023-08-06,06:50:00,194
2023-08-06,07:00:00,194.01
2023-08-06,07:10:00,194.02
2023-08-06,07:20:00,194.03
2023-08-06,07:30:00,194.03
2023-08-06,07:40:00,194.05
2023-08-06,07:50:00,194.06
2023-08-06,08:00:00,194.07
2023-08-06,08:10:00,194.08
2023-08-06,08:20:00,194.08
2023-08-06,08:30:00,194.09
2023-08-06,08:40:00,194.1
2023-08-06,08:50:00,194.11
2023-08-06,09:00:00,194.12
2023-08-06,09:10:00,194.13
2023-08-06,09:20:00,194.13
2023-08-06,09:30:00,194.14
2023-08-06,09:40:00,194.15
2023-08-06,09:50:00,194.17
2023-08-06,10:00:00,194.17
2023-08-06,10:10:00,194.18
2023-08-06,10:20:00,194.18
2023-08-06,10:30:00,194.19
2023-08-06,10:40:00,194.2
2023-08-06,10:50:00,194.21
2023-08-06,11:00:00,194.2
2023-08-06,11:10:00,194.21
2023-08-06,11:20:00,194.22
2023-08-06,11:30:00,194.22
2023-08-06,11:40:00,194.23
2023-08-06,11:50:00,194.22
2023-08-06,12:00:00,194.23
2023-08-06,12:10:00,-
2023-08-06,12:20:00,194.24
2023-08-06,12:30:00,194.23
2023-08-06,12:40:00,194.24
2023-08-06,12:50:00,194.24
2023-08-06,13:00:00,194.25
2023-08-06,13:10:00,-
2023-08-06,13:20:00,194.23
2023-08-06,13:30:00,194.25
2023-08-06,13:40:00,194.25
2023-08-06,13:50:00,194.24
2023-08-06,14:00:00,194.26
2023-08-06,14:10:00,-
2023-08-06,14:20:00,194.25
2023-08-06,14:30:00,-
2023-08-06,14:40:00,194.26
2023-08-06,14:50:00,194.26
2023-08-06,15:00:00,194.25
2023-08-06,15:10:00,194.26
2023-08-06,15:20:00,194.26
2023-08-06,15:30:00,194.26
2023-08-06,15:40:00,194.26
2023-08-06,15:50:00,194.26
2023-08-06,16:00:00,194.26
2023-08-06,16:10:00,194.26
2023-08-06,16:20:00,194.26
2023-08-06,16:30:00,194.25
2023-08-06,16:40:00,194.25
2023-08-06,16:50:00,194.24
2023-08-06,17:00:00,194.24
2023-08-06,17:10:00,194.24
2023-08-06,17:20:00,194.25
2023-08-06,17:30:00,194.24
2023-08-06,17:40:00,194.23
2023-08-06,17:50:00,194.23
2023-08-06,18:00:00,194.24
2023-08-06,18:10:00,194.23
2023-08-06,18:20:00,194.23
2023-08-06,18:30:00,194.23
2023-08-06,18:40:00,194.23
2023-08-06,18:50:00,194.23
2023-08-06,19:00:00,194.22
2023-08-06,19:10:00,194.22
2023-08-06,19:20:00,194.22
2023-08-06,19:30:00,194.21
2023-08-06,19:40:00,194.2
2023-08-06,19:50:00,194.2
2023-08-06,20:00:00,194.19
2023-08-06,20:10:00,194.19
2023-08-06,20:20:00,194.19
2023-08-06,20:30:00,194.19
2023-08-06,20:40:00,194.18
2023-08-06,20:50:00,194.18
2023-08-06,21:00:00,194.17
2023-08-06,21:10:00,194.16
2023-08-06,21:20:00,194.16
2023-08-06,21:30:00,194.15
2023-08-06,21:40:00,194.15
2023-08-06,21:50:00,194.14
2023-08-06,22:00:00,194.14
2023-08-06,22:10:00,194.13
2023-08-06,22:20:00,194.13
2023-08-06,22:30:00,194.12
2023-08-06,22:40:00,194.13
2023-08-06,22:50:00,194.11
2023-08-06,23:00:00,194.11
2023-08-06,23:10:00,194.1
2023-08-06,23:20:00,194.09
2023-08-06,23:30:00,194.08
2023-08-06,23:40:00,194.08
2023-08-06,23:50:00,194.07
2023-08-07,00:00:00,194.06
2023-08-07,00:10:00,194.06
2023-08-07,00:20:00,194.04
2023-08-07,00:30:00,194.04
2023-08-07,00:40:00,194.04
2023-08-07,00:50:00,194.02
2023-08-07,01:00:00,194.02
2023-08-07,01:10:00,194.01
2023-08-07,01:20:00,194
2023-08-07,01:30:00,193.99
2023-08-07,01:40:00,193.98
2023-08-07,01:50:00,193.97
2023-08-07,02:00:00,193.96
2023-08-07,02:10:00,193.95
2023-08-07,02:20:00,193.94
2023-08-07,02:30:00,193.93
2023-08-07,02:40:00,193.93
2023-08-07,02:50:00,193.92
2023-08-07,03:00:00,193.91
2023-08-07,03:10:00,193.89
2023-08-07,03:20:00,193.88
2023-08-07,03:30:00,193.88
2023-08-07,03:40:00,193.86
2023-08-07,03:50:00,193.86
2023-08-07,04:00:00,193.85
2023-08-07,04:10:00,193.84
2023-08-07,04:20:00,193.83
2023-08-07,04:30:00,193.82
2023-08-07,04:40:00,193.8
2023-08-07,04:50:00,193.79
2023-08-07,05:00:00,193.79
2023-08-07,05:10:00,193.77
2023-08-07,05:20:00,193.76